Time,TemperatureF,DewpointF,PressureIn,WindDirection,WindDirectionDegrees,WindSpeedMPH,WindSpeedGustMPH,Humidity,HourlyPrecipIn,Conditions,Clouds,dailyrainin,SoftwareType,DateUTC
2013-05-18 00:04:00,67.0,-99.9,0.00,SSE,157,15.0,18.0,-999,0.00,,,-99.99,,2013-05-18 05:04:00,
2013-05-18 00:09:00,67.0,-99.9,0.00,SSE,147,15.0,18.0,-999,0.00,,,-99.99,,2013-05-18 05:09:00,
2013-05-18 00:14:00,67.0,-99.9,0.00,SSE,148,16.0,18.0,-999,0.00,,,-99.99,,2013-05-18 05:14:00,
2013-05-18 00:19:00,67.0,-99.9,0.00,SSE,155,15.0,17.0,-999,0.00,,,-99.99,,2013-05-18 05:19:00,
2013-05-18 00:24:00,67.0,-99.9,0.00,SSE,148,16.0,19.0,-999,0.00,,,-99.99,,2013-05-18 05:24:00,
2013-05-18 00:29:00,67.0,-99.9,0.00,SSE,155,15.0,17.0,-999,0.00,,,-99.99,,2013-05-18 05:29:00,
2013-05-18 00:34:00,67.0,-99.9,0.00,SSE,148,14.0,16.0,-999,0.00,,,-99.99,,2013-05-18 05:34:00,
2013-05-18 00:39:00,66.0,-99.9,0.00,SE,141,13.0,15.0,-999,0.00,,,-99.99,,2013-05-18 05:39:00,
2013-05-18 00:44:00,66.0,-99.9,0.00,SE,144,13.0,15.0,-999,0.00,,,-99.99,,2013-05-18 05:44:00,
2013-05-18 00:49:00,66.0,-99.9,0.00,SE,141,11.0,13.0,-999,0.00,,,-99.99,,2013-05-18 05:49:00,
2013-05-18 00:54:00,66.0,-99.9,0.00,SE,137,10.0,11.0,-999,0.00,,,-99.99,,2013-05-18 05:54:00,
2013-05-18 00:59:00,66.0,-99.9,0.00,SE,125,10.0,11.0,-999,0.00,,,-99.99,,2013-05-18 05:59:00,
2013-05-18 01:04:00,66.0,-99.9,0.00,ESE,113,8.0,10.0,-999,0.00,,,-99.99,,2013-05-18 06:04:00,
2013-05-18 01:09:00,65.0,-99.9,0.00,ESE,106,7.0,9.0,-999,0.00,,,-99.99,,2013-05-18 06:09:00,
2013-05-18 01:14:00,65.0,-99.9,0.00,East,99,7.0,9.0,-999,0.00,,,-99.99,,2013-05-18 06:14:00,
2013-05-18 01:19:00,65.0,-99.9,0.00,SE,125,7.0,8.0,-999,0.00,,,-99.99,,2013-05-18 06:19:00,
2013-05-18 01:24:00,65.0,-99.9,0.00,ESE,116,7.0,9.0,-999,0.00,,,-99.99,,2013-05-18 06:24:00,
2013-05-18 01:29:00,65.0,-99.9,0.00,SE,124,6.0,8.0,-999,0.00,,,-99.99,,2013-05-18 06:29:00,
2013-05-18 01:34:00,65.0,-99.9,0.00,SE,125,6.0,8.0,-999,0.00,,,-99.99,,2013-05-18 06:34:00,
2013-05-18 01:39:00,65.0,-99.9,0.00,SE,141,7.0,8.0,-999,0.00,,,-99.99,,2013-05-18 06:39:00,
2013-05-18 01:44:00,65.0,-99.9,0.00,SE,141,6.0,7.0,-999,0.00,,,-99.99,,2013-05-18 06:44:00,
2013-05-18 01:49:00,65.0,-99.9,0.00,SSE,157,5.0,7.0,-999,0.00,,,-99.99,,2013-05-18 06:49:00,
2013-05-18 01:54:00,66.0,-99.9,0.00,SE,142,6.0,9.0,-999,0.00,,,-99.99,,2013-05-18 06:54:00,
2013-05-18 01:59:00,66.0,-99.9,0.00,SE,124,7.0,10.0,-999,0.00,,,-99.99,,2013-05-18 06:59:00,
2013-05-18 02:04:00,66.0,-99.9,0.00,SE,137,10.0,12.0,-999,0.00,,,-99.99,,2013-05-18 07:04:00,
2013-05-18 02:09:00,67.0,-99.9,0.00,SSE,147,13.0,16.0,-999,0.00,,,-99.99,,2013-05-18 07:09:00,
2013-05-18 02:14:00,67.0,-99.9,0.00,SSE,161,14.0,17.0,-999,0.00,,,-99.99,,2013-05-18 07:14:00,
2013-05-18 02:19:00,67.0,-99.9,0.00,SSE,162,13.0,15.0,-999,0.00,,,-99.99,,2013-05-18 07:19:00,
2013-05-18 02:24:00,67.0,-99.9,0.00,SSE,159,14.0,16.0,-999,0.00,,,-99.99,,2013-05-18 07:24:00,
2013-05-18 02:29:00,67.0,-99.9,0.00,SSE,155,15.0,17.0,-999,0.00,,,-99.99,,2013-05-18 07:29:00,
2013-05-18 02:34:00,67.0,-99.9,0.00,SSE,149,14.0,17.0,-999,0.00,,,-99.99,,2013-05-18 07:34:00,
2013-05-18 02:39:00,68.0,-99.9,0.00,SSE,161,17.0,19.0,-999,0.00,,,-99.99,,2013-05-18 07:39:00,
2013-05-18 02:44:00,68.0,-99.9,0.00,SSE,165,18.0,22.0,-999,0.00,,,-99.99,,2013-05-18 07:44:00,
2013-05-18 02:49:00,68.0,-99.9,0.00,SE,137,19.0,23.0,-999,0.00,,,-99.99,,2013-05-18 07:49:00,
2013-05-18 02:54:00,68.0,-99.9,0.00,South,173,19.0,22.0,-999,0.00,,,-99.99,,2013-05-18 07:54:00,
2013-05-18 02:59:00,68.0,-99.9,0.00,SSE,166,19.0,24.0,-999,0.00,,,-99.99,,2013-05-18 07:59:00,
2013-05-18 03:04:00,68.0,-99.9,0.00,South,169,17.0,21.0,-999,0.00,,,-99.99,,2013-05-18 08:04:00,
2013-05-18 03:09:00,68.0,-99.9,0.00,SE,142,17.0,20.0,-999,0.00,,,-99.99,,2013-05-18 08:09:00,
2013-05-18 03:14:00,68.0,-99.9,0.00,SSE,148,15.0,18.0,-999,0.00,,,-99.99,,2013-05-18 08:14:00,
2013-05-18 03:19:00,68.0,-99.9,0.00,SSE,158,16.0,19.0,-999,0.00,,,-99.99,,2013-05-18 08:19:00,
2013-05-18 03:24:00,68.0,-99.9,0.00,SSE,159,16.0,19.0,-999,0.00,,,-99.99,,2013-05-18 08:24:00,
2013-05-18 03:29:00,67.0,-99.9,0.00,SSE,151,12.0,15.0,-999,0.00,,,-99.99,,2013-05-18 08:29:00,
2013-05-18 03:34:00,67.0,-99.9,0.00,SE,141,11.0,14.0,-999,0.00,,,-99.99,,2013-05-18 08:34:00,
2013-05-18 03:39:00,66.0,-99.9,0.00,SE,145,9.0,11.0,-999,0.00,,,-99.99,,2013-05-18 08:39:00,
2013-05-18 03:44:00,66.0,-99.9,0.00,SE,127,10.0,12.0,-999,0.00,,,-99.99,,2013-05-18 08:44:00,
2013-05-18 03:49:00,66.0,-99.9,0.00,SE,135,9.0,11.0,-999,0.00,,,-99.99,,2013-05-18 08:49:00,
2013-05-18 03:54:00,66.0,-99.9,0.00,SSE,147,12.0,14.0,-999,0.00,,,-99.99,,2013-05-18 08:54:00,
2013-05-18 03:59:00,66.0,-99.9,0.00,SSE,166,12.0,15.0,-999,0.00,,,-99.99,,2013-05-18 08:59:00,
2013-05-18 04:04:00,66.0,-99.9,0.00,SSE,152,13.0,15.0,-999,0.00,,,-99.99,,2013-05-18 09:04:00,
2013-05-18 04:09:00,66.0,-99.9,0.00,SSE,161,13.0,16.0,-999,0.00,,,-99.99,,2013-05-18 09:09:00,
2013-05-18 04:14:00,66.0,-99.9,0.00,SSE,151,12.0,15.0,-999,0.00,,,-99.99,,2013-05-18 09:14:00,
2013-05-18 04:19:00,66.0,-99.9,0.00,SE,137,12.0,13.0,-999,0.00,,,-99.99,,2013-05-18 09:19:00,
2013-05-18 04:29:00,66.0,-99.9,0.00,SE,137,13.0,15.0,-999,0.00,,,-99.99,,2013-05-18 09:29:00,
2013-05-18 04:34:00,66.0,-99.9,0.00,SE,134,12.0,14.0,-999,0.00,,,-99.99,,2013-05-18 09:34:00,
2013-05-18 04:39:00,66.0,-99.9,0.00,SSE,151,11.0,14.0,-999,0.00,,,-99.99,,2013-05-18 09:39:00,
2013-05-18 04:44:00,66.0,-99.9,0.00,SE,131,12.0,13.0,-999,0.00,,,-99.99,,2013-05-18 09:44:00,
2013-05-18 04:49:00,66.0,-99.9,0.00,SSE,151,11.0,14.0,-999,0.00,,,-99.99,,2013-05-18 09:49:00,
2013-05-18 04:54:00,66.0,-99.9,0.00,SE,127,11.0,12.0,-999,0.00,,,-99.99,,2013-05-18 09:54:00,
2013-05-18 04:59:00,66.0,-99.9,0.00,ESE,123,9.0,11.0,-999,0.00,,,-99.99,,2013-05-18 09:59:00,
2013-05-18 05:04:00,66.0,-99.9,0.00,ESE,123,11.0,14.0,-999,0.00,,,-99.99,,2013-05-18 10:04:00,
2013-05-18 05:09:00,66.0,-99.9,0.00,ESE,120,11.0,13.0,-999,0.00,,,-99.99,,2013-05-18 10:09:00,
2013-05-18 05:14:00,66.0,-99.9,0.00,ESE,116,10.0,12.0,-999,0.00,,,-99.99,,2013-05-18 10:14:00,
2013-05-18 05:19:00,66.0,-99.9,0.00,ESE,120,11.0,13.0,-999,0.00,,,-99.99,,2013-05-18 10:19:00,
2013-05-18 05:24:00,66.0,-99.9,0.00,ESE,107,11.0,13.0,-999,0.00,,,-99.99,,2013-05-18 10:24:00,
2013-05-18 05:29:00,66.0,-99.9,0.00,ESE,107,10.0,12.0,-999,0.00,,,-99.99,,2013-05-18 10:29:00,
2013-05-18 05:34:00,65.0,-99.9,0.00,ESE,111,10.0,12.0,-999,0.00,,,-99.99,,2013-05-18 10:34:00,
2013-05-18 05:39:00,65.0,-99.9,0.00,ESE,109,9.0,11.0,-999,0.00,,,-99.99,,2013-05-18 10:39:00,
2013-05-18 05:44:00,65.0,-99.9,0.00,SE,124,9.0,11.0,-999,0.00,,,-99.99,,2013-05-18 10:44:00,
2013-05-18 05:49:00,65.0,-99.9,0.00,ESE,110,10.0,14.0,-999,0.00,,,-99.99,,2013-05-18 10:49:00,
2013-05-18 05:54:00,66.0,-99.9,0.00,ESE,106,12.0,14.0,-999,0.00,,,-99.99,,2013-05-18 10:54:00,
2013-05-18 06:04:00,66.0,-99.9,0.00,ESE,117,12.0,14.0,-999,0.00,,,-99.99,,2013-05-18 11:04:00,
2013-05-18 06:09:00,66.0,-99.9,0.00,ESE,111,12.0,15.0,-999,0.00,,,-99.99,,2013-05-18 11:09:00,
2013-05-18 06:14:00,66.0,-99.9,0.00,ESE,118,15.0,17.0,-999,0.00,,,-99.99,,2013-05-18 11:14:00,
2013-05-18 06:19:00,66.0,-99.9,0.00,ESE,114,15.0,17.0,-999,0.00,,,-99.99,,2013-05-18 11:19:00,
2013-05-18 06:24:00,66.0,-99.9,0.00,SE,128,14.0,17.0,-999,0.00,,,-99.99,,2013-05-18 11:24:00,
2013-05-18 06:29:00,66.0,-99.9,0.00,ESE,111,14.0,15.0,-999,0.00,,,-99.99,,2013-05-18 11:29:00,
2013-05-18 06:34:00,66.0,-99.9,0.00,ESE,107,14.0,17.0,-999,0.00,,,-99.99,,2013-05-18 11:34:00,
2013-05-18 06:39:00,67.0,-99.9,0.00,ESE,113,16.0,19.0,-999,0.00,,,-99.99,,2013-05-18 11:39:00,
2013-05-18 06:44:00,66.0,-99.9,0.00,ESE,120,16.0,19.0,-999,0.00,,,-99.99,,2013-05-18 11:44:00,
2013-05-18 06:49:00,66.0,-99.9,0.00,SE,127,12.0,15.0,-999,0.00,,,-99.99,,2013-05-18 11:49:00,
2013-05-18 06:54:00,67.0,-99.9,0.00,SE,140,14.0,17.0,-999,0.00,,,-99.99,,2013-05-18 11:54:00,
2013-05-18 06:59:00,67.0,-99.9,0.00,SE,128,13.0,15.0,-999,0.00,,,-99.99,,2013-05-18 11:59:00,
2013-05-18 07:04:00,67.0,-99.9,0.00,SE,138,12.0,14.0,-999,0.00,,,-99.99,,2013-05-18 12:04:00,
2013-05-18 07:09:00,67.0,-99.9,0.00,SE,134,14.0,16.0,-999,0.00,,,-99.99,,2013-05-18 12:09:00,
2013-05-18 07:14:00,67.0,-99.9,0.00,SE,128,12.0,15.0,-999,0.00,,,-99.99,,2013-05-18 12:14:00,
2013-05-18 07:19:00,67.0,-99.9,0.00,SE,133,12.0,15.0,-999,0.00,,,-99.99,,2013-05-18 12:19:00,
2013-05-18 07:24:00,67.0,-99.9,0.00,ESE,106,11.0,12.0,-999,0.00,,,-99.99,,2013-05-18 12:24:00,
2013-05-18 07:29:00,67.0,-99.9,0.00,ESE,104,10.0,12.0,-999,0.00,,,-99.99,,2013-05-18 12:29:00,
2013-05-18 07:34:00,67.0,-99.9,0.00,East,97,10.0,12.0,-999,0.00,,,-99.99,,2013-05-18 12:34:00,
2013-05-18 07:39:00,68.0,-99.9,0.00,ESE,106,11.0,13.0,-999,0.00,,,-99.99,,2013-05-18 12:39:00,
2013-05-18 07:44:00,68.0,-99.9,0.00,ESE,120,12.0,14.0,-999,0.00,,,-99.99,,2013-05-18 12:44:00,
2013-05-18 07:49:00,68.0,-99.9,0.00,SE,124,14.0,16.0,-999,0.00,,,-99.99,,2013-05-18 12:49:00,
2013-05-18 07:54:00,68.0,-99.9,0.00,ESE,114,14.0,16.0,-999,0.00,,,-99.99,,2013-05-18 12:54:00,
2013-05-18 07:59:00,68.0,-99.9,0.00,ESE,109,13.0,15.0,-999,0.00,,,-99.99,,2013-05-18 12:59:00,
2013-05-18 08:04:00,68.0,-99.9,0.00,SE,127,13.0,15.0,-999,0.00,,,-99.99,,2013-05-18 13:04:00,
2013-05-18 08:09:00,68.0,-99.9,0.00,SE,133,13.0,15.0,-999,0.00,,,-99.99,,2013-05-18 13:09:00,
2013-05-18 08:14:00,68.0,-99.9,0.00,ESE,120,13.0,15.0,-999,0.00,,,-99.99,,2013-05-18 13:14:00,
2013-05-18 08:19:00,68.0,-99.9,0.00,ESE,118,15.0,17.0,-999,0.00,,,-99.99,,2013-05-18 13:19:00,
2013-05-18 08:24:00,68.0,-99.9,0.00,SE,124,12.0,14.0,-999,0.00,,,-99.99,,2013-05-18 13:24:00,
2013-05-18 08:29:00,68.0,-99.9,0.00,SE,133,12.0,15.0,-999,0.00,,,-99.99,,2013-05-18 13:29:00,
2013-05-18 08:34:00,69.0,-99.9,0.00,SE,131,13.0,16.0,-999,0.00,,,-99.99,,2013-05-18 13:34:00,
2013-05-18 08:39:00,69.0,-99.9,0.00,SE,142,12.0,15.0,-999,0.00,,,-99.99,,2013-05-18 13:39:00,
2013-05-18 08:44:00,69.0,-99.9,0.00,SE,140,13.0,15.0,-999,0.00,,,-99.99,,2013-05-18 13:44:00,
2013-05-18 08:49:00,69.0,-99.9,0.00,SE,142,13.0,16.0,-999,0.00,,,-99.99,,2013-05-18 13:49:00,
2013-05-18 08:54:00,70.0,-99.9,0.00,SE,135,14.0,17.0,-999,0.00,,,-99.99,,2013-05-18 13:54:00,
2013-05-18 08:59:00,70.0,-99.9,0.00,SSE,152,15.0,16.0,-999,0.00,,,-99.99,,2013-05-18 13:59:00,
2013-05-18 09:04:00,70.0,-99.9,0.00,SE,145,14.0,17.0,-999,0.00,,,-99.99,,2013-05-18 14:04:00,
2013-05-18 09:09:00,70.0,-99.9,0.00,SE,145,15.0,16.0,-999,0.00,,,-99.99,,2013-05-18 14:09:00,
2013-05-18 09:14:00,70.0,-99.9,0.00,SSE,159,15.0,17.0,-999,0.00,,,-99.99,,2013-05-18 14:14:00,
2013-05-18 09:19:00,71.0,-99.9,0.00,SE,137,15.0,17.0,-999,0.00,,,-99.99,,2013-05-18 14:19:00,
2013-05-18 09:24:00,71.0,-99.9,0.00,SSE,148,14.0,18.0,-999,0.00,,,-99.99,,2013-05-18 14:24:00,
2013-05-18 09:29:00,72.0,-99.9,0.00,SSE,147,13.0,16.0,-999,0.00,,,-99.99,,2013-05-18 14:29:00,
2013-05-18 09:34:00,71.0,-99.9,0.00,SSE,147,15.0,17.0,-999,0.00,,,-99.99,,2013-05-18 14:34:00,
2013-05-18 09:39:00,71.0,-99.9,0.00,SE,144,15.0,18.0,-999,0.00,,,-99.99,,2013-05-18 14:39:00,
2013-05-18 09:44:00,72.0,-99.9,0.00,SE,124,13.0,16.0,-999,0.00,,,-99.99,,2013-05-18 14:44:00,
2013-05-18 09:49:00,72.0,-99.9,0.00,SE,138,14.0,17.0,-999,0.00,,,-99.99,,2013-05-18 14:49:00,
2013-05-18 09:54:00,72.0,-99.9,0.00,SE,137,14.0,17.0,-999,0.00,,,-99.99,,2013-05-18 14:54:00,
2013-05-18 09:59:00,72.0,-99.9,0.00,SE,124,13.0,15.0,-999,0.00,,,-99.99,,2013-05-18 14:59:00,
2013-05-18 10:04:00,72.0,-99.9,0.00,SE,128,14.0,16.0,-999,0.00,,,-99.99,,2013-05-18 15:04:00,
2013-05-18 10:09:00,73.0,-99.9,0.00,SE,135,14.0,16.0,-999,0.00,,,-99.99,,2013-05-18 15:09:00,
2013-05-18 10:14:00,72.0,-99.9,0.00,SE,135,12.0,14.0,-999,0.00,,,-99.99,,2013-05-18 15:14:00,
2013-05-18 10:19:00,72.0,-99.9,0.00,SSE,147,13.0,16.0,-999,0.00,,,-99.99,,2013-05-18 15:19:00,
2013-05-18 10:24:00,73.0,-99.9,0.00,SE,140,13.0,14.0,-999,0.00,,,-99.99,,2013-05-18 15:24:00,
2013-05-18 10:29:00,73.0,-99.9,0.00,SE,140,12.0,15.0,-999,0.00,,,-99.99,,2013-05-18 15:29:00,
2013-05-18 10:34:00,73.0,-99.9,0.00,SE,135,14.0,16.0,-999,0.00,,,-99.99,,2013-05-18 15:34:00,
2013-05-18 10:39:00,73.0,-99.9,0.00,SE,128,11.0,13.0,-999,0.00,,,-99.99,,2013-05-18 15:39:00,
2013-05-18 10:44:00,73.0,-99.9,0.00,SE,142,13.0,15.0,-999,0.00,,,-99.99,,2013-05-18 15:44:00,
2013-05-18 10:49:00,73.0,-99.9,0.00,SSE,147,12.0,14.0,-999,0.00,,,-99.99,,2013-05-18 15:49:00,
2013-05-18 10:54:00,73.0,-99.9,0.00,SE,133,13.0,14.0,-999,0.00,,,-99.99,,2013-05-18 15:54:00,
2013-05-18 10:59:00,74.0,-99.9,0.00,ESE,117,11.0,13.0,-999,0.00,,,-99.99,,2013-05-18 15:59:00,
2013-05-18 11:04:00,74.0,-99.9,0.00,SE,133,10.0,12.0,-999,0.00,,,-99.99,,2013-05-18 16:04:00,
2013-05-18 11:09:00,74.0,-99.9,0.00,SE,137,11.0,12.0,-999,0.00,,,-99.99,,2013-05-18 16:09:00,
2013-05-18 11:14:00,74.0,-99.9,0.00,SE,138,12.0,15.0,-999,0.00,,,-99.99,,2013-05-18 16:14:00,
2013-05-18 11:19:00,76.0,-99.9,0.00,SE,138,13.0,15.0,-999,0.00,,,-99.99,,2013-05-18 16:19:00,
2013-05-18 11:24:00,75.0,-99.9,0.00,SE,134,14.0,16.0,-999,0.00,,,-99.99,,2013-05-18 16:24:00,
2013-05-18 11:29:00,75.0,-99.9,0.00,ESE,116,14.0,17.0,-999,0.00,,,-99.99,,2013-05-18 16:29:00,
2013-05-18 11:34:00,74.0,-99.9,0.00,SE,133,15.0,19.0,-999,0.00,,,-99.99,,2013-05-18 16:34:00,
2013-05-18 11:44:00,75.0,-99.9,0.00,SE,131,16.0,19.0,-999,0.00,,,-99.99,,2013-05-18 16:44:00,
2013-05-18 11:49:00,75.0,-99.9,0.00,SE,138,15.0,18.0,-999,0.00,,,-99.99,,2013-05-18 16:49:00,
2013-05-18 11:54:00,75.0,-99.9,0.00,SE,128,16.0,19.0,-999,0.00,,,-99.99,,2013-05-18 16:54:00,
2013-05-18 11:59:00,77.0,-99.9,0.00,SE,130,15.0,17.0,-999,0.00,,,-99.99,,2013-05-18 16:59:00,
2013-05-18 12:04:00,78.0,-99.9,0.00,SSE,148,18.0,20.0,-999,0.00,,,-99.99,,2013-05-18 17:04:00,
2013-05-18 12:09:00,77.0,-99.9,0.00,SE,130,18.0,23.0,-999,0.00,,,-99.99,,2013-05-18 17:09:00,
2013-05-18 12:14:00,78.0,-99.9,0.00,SSE,157,17.0,21.0,-999,0.00,,,-99.99,,2013-05-18 17:14:00,
2013-05-18 12:19:00,78.0,-99.9,0.00,SSE,147,17.0,21.0,-999,0.00,,,-99.99,,2013-05-18 17:19:00,
2013-05-18 12:24:00,78.0,-99.9,0.00,SE,138,19.0,22.0,-999,0.00,,,-99.99,,2013-05-18 17:24:00,
2013-05-18 12:29:00,78.0,-99.9,0.00,SSE,157,17.0,20.0,-999,0.00,,,-99.99,,2013-05-18 17:29:00,
2013-05-18 12:34:00,79.0,-99.9,0.00,SSE,155,18.0,20.0,-999,0.00,,,-99.99,,2013-05-18 17:34:00,
2013-05-18 12:39:00,80.0,-99.9,0.00,SSE,164,17.0,20.0,-999,0.00,,,-99.99,,2013-05-18 17:39:00,
2013-05-18 12:44:00,78.0,-99.9,0.00,SSE,155,19.0,23.0,-999,0.00,,,-99.99,,2013-05-18 17:44:00,
2013-05-18 12:49:00,77.0,-99.9,0.00,SSE,152,19.0,22.0,-999,0.00,,,-99.99,,2013-05-18 17:49:00,
2013-05-18 12:54:00,77.0,-99.9,0.00,SE,133,17.0,21.0,-999,0.00,,,-99.99,,2013-05-18 17:54:00,
2013-05-18 12:59:00,76.0,-99.9,0.00,SSE,162,16.0,18.0,-999,0.00,,,-99.99,,2013-05-18 17:59:00,
2013-05-18 13:04:00,76.0,-99.9,0.00,SSE,147,18.0,21.0,-999,0.00,,,-99.99,,2013-05-18 18:04:00,
2013-05-18 13:09:00,76.0,-99.9,0.00,SE,141,14.0,16.0,-999,0.00,,,-99.99,,2013-05-18 18:09:00,
2013-05-18 13:14:00,77.0,-99.9,0.00,SE,131,14.0,16.0,-999,0.00,,,-99.99,,2013-05-18 18:14:00,
2013-05-18 13:19:00,77.0,-99.9,0.00,SE,133,18.0,20.0,-999,0.00,,,-99.99,,2013-05-18 18:19:00,
2013-05-18 13:24:00,77.0,-99.9,0.00,SSE,147,17.0,19.0,-999,0.00,,,-99.99,,2013-05-18 18:24:00,
2013-05-18 13:29:00,78.0,-99.9,0.00,SE,127,14.0,16.0,-999,0.00,,,-99.99,,2013-05-18 18:29:00,
2013-05-18 13:34:00,76.0,-99.9,0.00,SE,131,15.0,18.0,-999,0.00,,,-99.99,,2013-05-18 18:34:00,
2013-05-18 13:39:00,77.0,-99.9,0.00,SE,144,13.0,16.0,-999,0.00,,,-99.99,,2013-05-18 18:39:00,
2013-05-18 13:44:00,78.0,-99.9,0.00,SE,134,14.0,16.0,-999,0.00,,,-99.99,,2013-05-18 18:44:00,
2013-05-18 13:49:00,77.0,-99.9,0.00,ENE,78,12.0,14.0,-999,0.00,,,-99.99,,2013-05-18 18:49:00,
2013-05-18 13:54:00,77.0,-99.9,0.00,East,89,12.0,13.0,-999,0.00,,,-99.99,,2013-05-18 18:54:00,
2013-05-18 13:59:00,77.0,-99.9,0.00,ENE,63,9.0,11.0,-999,0.00,,,-99.99,,2013-05-18 18:59:00,
2013-05-18 14:04:00,77.0,-99.9,0.00,East,82,8.0,10.0,-999,0.00,,,-99.99,,2013-05-18 19:04:00,
2013-05-18 14:09:00,78.0,-99.9,0.00,East,92,13.0,15.0,-999,0.00,,,-99.99,,2013-05-18 19:09:00,
2013-05-18 14:14:00,77.0,-99.9,0.00,NE,51,12.0,15.0,-999,0.00,,,-99.99,,2013-05-18 19:14:00,
2013-05-18 14:19:00,76.0,-99.9,0.00,ENE,76,17.0,19.0,-999,0.00,,,-99.99,,2013-05-18 19:19:00,
2013-05-18 14:24:00,76.0,-99.9,0.00,ENE,68,15.0,17.0,-999,0.00,,,-99.99,,2013-05-18 19:24:00,
2013-05-18 14:29:00,77.0,-99.9,0.00,ENE,78,15.0,17.0,-999,0.00,,,-99.99,,2013-05-18 19:29:00,
2013-05-18 14:34:00,77.0,-99.9,0.00,ESE,102,15.0,18.0,-999,0.00,,,-99.99,,2013-05-18 19:34:00,
2013-05-18 14:39:00,78.0,-99.9,0.00,East,79,17.0,20.0,-999,0.00,,,-99.99,,2013-05-18 19:39:00,
2013-05-18 14:44:00,79.0,-99.9,0.00,ENE,63,17.0,20.0,-999,0.00,,,-99.99,,2013-05-18 19:44:00,
2013-05-18 14:49:00,79.0,-99.9,0.00,ENE,68,17.0,21.0,-999,0.00,,,-99.99,,2013-05-18 19:49:00,
2013-05-18 14:54:00,79.0,-99.9,0.00,ENE,75,16.0,19.0,-999,0.00,,,-99.99,,2013-05-18 19:54:00,
2013-05-18 14:59:00,79.0,-99.9,0.00,ENE,63,17.0,20.0,-999,0.00,,,-99.99,,2013-05-18 19:59:00,
2013-05-18 15:04:00,78.0,-99.9,0.00,ENE,62,17.0,19.0,-999,0.00,,,-99.99,,2013-05-18 20:04:00,
2013-05-18 15:09:00,79.0,-99.9,0.00,NE,56,16.0,20.0,-999,0.00,,,-99.99,,2013-05-18 20:09:00,
2013-05-18 15:14:00,81.0,-99.9,0.00,ENE,59,15.0,19.0,-999,0.00,,,-99.99,,2013-05-18 20:14:00,
2013-05-18 15:19:00,82.0,-99.9,0.00,East,85,18.0,21.0,-999,0.00,,,-99.99,,2013-05-18 20:19:00,
2013-05-18 15:24:00,81.0,-99.9,0.00,ENE,72,19.0,24.0,-999,0.00,,,-99.99,,2013-05-18 20:24:00,
2013-05-18 15:29:00,82.0,-99.9,0.00,ENE,69,19.0,21.0,-999,0.00,,,-99.99,,2013-05-18 20:29:00,
2013-05-18 15:34:00,82.0,-99.9,0.00,ENE,61,17.0,21.0,-999,0.00,,,-99.99,,2013-05-18 20:34:00,
2013-05-18 15:39:00,83.0,-99.9,0.00,ENE,73,19.0,21.0,-999,0.00,,,-99.99,,2013-05-18 20:39:00,
2013-05-18 15:44:00,82.0,-99.9,0.00,ENE,58,20.0,23.0,-999,0.00,,,-99.99,,2013-05-18 20:44:00,
2013-05-18 15:49:00,83.0,-99.9,0.00,ENE,78,19.0,22.0,-999,0.00,,,-99.99,,2013-05-18 20:49:00,
2013-05-18 15:54:00,83.0,-99.9,0.00,ENE,78,18.0,22.0,-999,0.00,,,-99.99,,2013-05-18 20:54:00,
2013-05-18 15:59:00,84.0,-99.9,0.00,ENE,75,18.0,21.0,-999,0.00,,,-99.99,,2013-05-18 20:59:00,
2013-05-18 16:04:00,83.0,-99.9,0.00,ENE,78,19.0,23.0,-999,0.00,,,-99.99,,2013-05-18 21:04:00,
2013-05-18 16:09:00,84.0,-99.9,0.00,East,82,20.0,24.0,-999,0.00,,,-99.99,,2013-05-18 21:09:00,
2013-05-18 16:14:00,84.0,-99.9,0.00,East,79,20.0,23.0,-999,0.00,,,-99.99,,2013-05-18 21:14:00,
2013-05-18 16:19:00,85.0,-99.9,0.00,East,82,20.0,24.0,-999,0.00,,,-99.99,,2013-05-18 21:19:00,
2013-05-18 16:24:00,85.0,-99.9,0.00,East,79,19.0,24.0,-999,0.00,,,-99.99,,2013-05-18 21:24:00,
2013-05-18 16:29:00,84.0,-99.9,0.00,ENE,63,20.0,25.0,-999,0.00,,,-99.99,,2013-05-18 21:29:00,
2013-05-18 16:34:00,83.0,-99.9,0.00,ENE,75,20.0,25.0,-999,0.00,,,-99.99,,2013-05-18 21:34:00,
2013-05-18 16:39:00,82.0,-99.9,0.00,ENE,73,17.0,21.0,-999,0.00,,,-99.99,,2013-05-18 21:39:00,
2013-05-18 16:44:00,81.0,-99.9,0.00,East,93,21.0,24.0,-999,0.00,,,-99.99,,2013-05-18 21:44:00,
2013-05-18 16:49:00,81.0,-99.9,0.00,ENE,72,21.0,24.0,-999,0.00,,,-99.99,,2013-05-18 21:49:00,
2013-05-18 16:54:00,80.0,-99.9,0.00,ENE,68,19.0,23.0,-999,0.00,,,-99.99,,2013-05-18 21:54:00,
2013-05-18 16:59:00,80.0,-99.9,0.00,East,87,19.0,23.0,-999,0.00,,,-99.99,,2013-05-18 21:59:00,
2013-05-18 17:04:00,80.0,-99.9,0.00,ENE,71,17.0,20.0,-999,0.00,,,-99.99,,2013-05-18 22:04:00,
2013-05-18 17:09:00,78.0,-99.9,0.00,ENE,61,16.0,19.0,-999,0.00,,,-99.99,,2013-05-18 22:09:00,
2013-05-18 17:14:00,76.0,-99.9,0.00,East,96,16.0,19.0,-999,0.00,,,-99.99,,2013-05-18 22:14:00,
2013-05-18 17:19:00,76.0,-99.9,0.00,ENE,73,17.0,21.0,-999,0.00,,,-99.99,,2013-05-18 22:19:00,
2013-05-18 17:24:00,76.0,-99.9,0.00,East,83,18.0,21.0,-999,0.00,,,-99.99,,2013-05-18 22:24:00,
2013-05-18 17:29:00,76.0,-99.9,0.00,East,80,22.0,26.0,-999,0.00,,,-99.99,,2013-05-18 22:29:00,
2013-05-18 17:34:00,77.0,-99.9,0.00,ENE,69,24.0,30.0,-999,0.00,,,-99.99,,2013-05-18 22:34:00,
2013-05-18 17:39:00,75.0,-99.9,0.00,East,80,31.0,38.0,-999,0.00,,,-99.99,,2013-05-18 22:39:00,
2013-05-18 17:44:00,71.0,-99.9,0.00,ESE,113,25.0,32.0,-999,0.00,,,-99.99,,2013-05-18 22:44:00,
2013-05-18 17:49:00,71.0,-99.9,0.00,ENE,66,25.0,31.0,-999,0.00,,,-99.99,,2013-05-18 22:49:00,
2013-05-18 17:54:00,71.0,-99.9,0.00,ESE,104,28.0,37.0,-999,0.00,,,-99.99,,2013-05-18 22:54:00,
2013-05-18 17:59:00,70.0,-99.9,0.00,ENE,66,32.0,40.0,-999,0.00,,,-99.99,,2013-05-18 22:59:00,
2013-05-18 18:04:00,70.0,-99.9,0.00,ENE,69,29.0,37.0,-999,0.00,,,-99.99,,2013-05-18 23:04:00,
2013-05-18 18:09:00,70.0,-99.9,0.00,NE,55,24.0,30.0,-999,0.00,,,-99.99,,2013-05-18 23:09:00,
2013-05-18 18:14:00,71.0,-99.9,0.00,ENE,72,24.0,30.0,-999,0.00,,,-99.99,,2013-05-18 23:14:00,
2013-05-18 18:19:00,69.0,-99.9,0.00,East,83,18.0,20.0,-999,0.00,,,-99.99,,2013-05-18 23:19:00,
2013-05-18 18:24:00,70.0,-99.9,0.00,East,79,11.0,14.0,-999,0.00,,,-99.99,,2013-05-18 23:24:00,
2013-05-18 18:29:00,72.0,-99.9,0.00,East,90,14.0,16.0,-999,0.00,,,-99.99,,2013-05-18 23:29:00,
2013-05-18 18:34:00,73.0,-99.9,0.00,East,96,17.0,20.0,-999,0.00,,,-99.99,,2013-05-18 23:34:00,
2013-05-18 18:39:00,74.0,-99.9,0.00,ENE,68,16.0,19.0,-999,0.00,,,-99.99,,2013-05-18 23:39:00,
2013-05-18 18:44:00,73.0,-99.9,0.00,ENE,78,14.0,16.0,-999,0.00,,,-99.99,,2013-05-18 23:44:00,
2013-05-18 18:49:00,72.0,-99.9,0.00,ENE,61,11.0,16.0,-999,0.00,,,-99.99,,2013-05-18 23:49:00,
2013-05-18 18:54:00,73.0,-99.9,0.00,NE,56,19.0,22.0,-999,0.00,,,-99.99,,2013-05-18 23:54:00,
2013-05-18 18:59:00,73.0,-99.9,0.00,NNE,13,18.0,23.0,-999,0.00,,,-99.99,,2013-05-18 23:59:00,
2013-05-18 19:04:00,73.0,-99.9,0.00,NNW,336,16.0,20.0,-999,0.00,,,-99.99,,2013-05-19 00:04:00,
2013-05-18 19:09:00,73.0,-99.9,0.00,NNE,31,20.0,25.0,-999,0.00,,,-99.99,,2013-05-19 00:09:00,
2013-05-18 19:14:00,72.0,-99.9,0.00,North,8,16.0,21.0,-999,0.00,,,-99.99,,2013-05-19 00:14:00,
2013-05-18 19:19:00,72.0,-99.9,0.00,NNE,13,13.0,17.0,-999,0.00,,,-99.99,,2013-05-19 00:19:00,
2013-05-18 19:24:00,71.0,-99.9,0.00,NE,44,11.0,14.0,-999,0.00,,,-99.99,,2013-05-19 00:24:00,
2013-05-18 19:29:00,72.0,-99.9,0.00,NNE,13,11.0,16.0,-999,0.00,,,-99.99,,2013-05-19 00:29:00,
2013-05-18 19:34:00,72.0,-99.9,0.00,NNE,14,12.0,17.0,-999,0.00,,,-99.99,,2013-05-19 00:34:00,
2013-05-18 19:39:00,72.0,-99.9,0.00,NE,35,13.0,15.0,-999,0.00,,,-99.99,,2013-05-19 00:39:00,
2013-05-18 19:49:00,70.0,-99.9,0.00,ENE,69,16.0,18.0,-999,0.00,,,-99.99,,2013-05-19 00:49:00,
2013-05-18 19:54:00,70.0,-99.9,0.00,ENE,59,13.0,17.0,-999,0.00,,,-99.99,,2013-05-19 00:54:00,
2013-05-18 19:59:00,69.0,-99.9,0.00,NE,42,14.0,17.0,-999,0.00,,,-99.99,,2013-05-19 00:59:00,
2013-05-18 20:04:00,70.0,-99.9,0.00,NE,42,15.0,18.0,-999,0.00,,,-99.99,,2013-05-19 01:04:00,
2013-05-18 20:09:00,69.0,-99.9,0.00,ENE,63,15.0,19.0,-999,0.00,,,-99.99,,2013-05-19 01:09:00,
2013-05-18 20:14:00,69.0,-99.9,0.00,East,83,14.0,17.0,-999,0.00,,,-99.99,,2013-05-19 01:14:00,
2013-05-18 20:19:00,68.0,-99.9,0.00,East,83,13.0,16.0,-999,0.00,,,-99.99,,2013-05-19 01:19:00,
2013-05-18 20:24:00,68.0,-99.9,0.00,East,82,14.0,17.0,-999,0.00,,,-99.99,,2013-05-19 01:24:00,
2013-05-18 20:29:00,68.0,-99.9,0.00,ENE,62,13.0,15.0,-999,0.00,,,-99.99,,2013-05-19 01:29:00,
2013-05-18 20:34:00,68.0,-99.9,0.00,ENE,68,12.0,15.0,-999,0.00,,,-99.99,,2013-05-19 01:34:00,
2013-05-18 20:39:00,68.0,-99.9,0.00,East,80,11.0,13.0,-999,0.00,,,-99.99,,2013-05-19 01:39:00,
2013-05-18 20:44:00,67.0,-99.9,0.00,ENE,59,10.0,12.0,-999,0.00,,,-99.99,,2013-05-19 01:44:00,
2013-05-18 20:49:00,67.0,-99.9,0.00,East,83,16.0,18.0,-999,0.00,,,-99.99,,2013-05-19 01:49:00,
2013-05-18 20:54:00,66.0,-99.9,0.00,East,80,16.0,20.0,-999,0.00,,,-99.99,,2013-05-19 01:54:00,
2013-05-18 20:59:00,66.0,-99.9,0.00,East,82,14.0,18.0,-999,0.00,,,-99.99,,2013-05-19 01:59:00,
2013-05-18 21:04:00,66.0,-99.9,0.00,East,93,16.0,18.0,-999,0.00,,,-99.99,,2013-05-19 02:04:00,
2013-05-18 21:09:00,66.0,-99.9,0.00,NE,49,12.0,14.0,-999,0.00,,,-99.99,,2013-05-19 02:09:00,
2013-05-18 21:14:00,66.0,-99.9,0.00,ENE,76,13.0,16.0,-999,0.00,,,-99.99,,2013-05-19 02:14:00,
2013-05-18 21:19:00,65.0,-99.9,0.00,ENE,58,13.0,15.0,-999,0.00,,,-99.99,,2013-05-19 02:19:00,
2013-05-18 21:24:00,65.0,-99.9,0.00,East,99,15.0,18.0,-999,0.00,,,-99.99,,2013-05-19 02:24:00,
2013-05-18 21:29:00,65.0,-99.9,0.00,East,82,15.0,17.0,-999,0.00,,,-99.99,,2013-05-19 02:29:00,
2013-05-18 21:34:00,66.0,-99.9,0.00,ENE,65,15.0,19.0,-999,0.00,,,-99.99,,2013-05-19 02:34:00,
2013-05-18 21:39:00,66.0,-99.9,0.00,East,89,14.0,18.0,-999,0.00,,,-99.99,,2013-05-19 02:39:00,
2013-05-18 21:44:00,65.0,-99.9,0.00,East,90,14.0,16.0,-999,0.00,,,-99.99,,2013-05-19 02:44:00,
2013-05-18 21:49:00,65.0,-99.9,0.00,East,80,14.0,17.0,-999,0.00,,,-99.99,,2013-05-19 02:49:00,
2013-05-18 21:54:00,65.0,-99.9,0.00,East,79,13.0,16.0,-999,0.00,,,-99.99,,2013-05-19 02:54:00,
2013-05-18 21:59:00,66.0,-99.9,0.00,East,82,16.0,18.0,-999,0.00,,,-99.99,,2013-05-19 02:59:00,
2013-05-18 22:04:00,66.0,-99.9,0.00,East,94,16.0,19.0,-999,0.00,,,-99.99,,2013-05-19 03:04:00,
2013-05-18 22:09:00,66.0,-99.9,0.00,East,90,17.0,21.0,-999,0.00,,,-99.99,,2013-05-19 03:09:00,
2013-05-18 22:14:00,66.0,-99.9,0.00,East,85,18.0,21.0,-999,0.00,,,-99.99,,2013-05-19 03:14:00,
2013-05-18 22:19:00,67.0,-99.9,0.00,East,90,18.0,22.0,-999,0.00,,,-99.99,,2013-05-19 03:19:00,
2013-05-18 22:24:00,67.0,-99.9,0.00,ENE,73,18.0,22.0,-999,0.00,,,-99.99,,2013-05-19 03:24:00,
2013-05-18 22:29:00,67.0,-99.9,0.00,East,100,20.0,23.0,-999,0.00,,,-99.99,,2013-05-19 03:29:00,
2013-05-18 22:34:00,67.0,-99.9,0.00,East,87,19.0,23.0,-999,0.00,,,-99.99,,2013-05-19 03:34:00,
2013-05-18 22:39:00,67.0,-99.9,0.00,East,83,18.0,23.0,-999,0.00,,,-99.99,,2013-05-19 03:39:00,
2013-05-18 22:44:00,67.0,-99.9,0.00,ESE,110,17.0,21.0,-999,0.00,,,-99.99,,2013-05-19 03:44:00,
2013-05-18 22:49:00,67.0,-99.9,0.00,East,86,17.0,21.0,-999,0.00,,,-99.99,,2013-05-19 03:49:00,
2013-05-18 22:54:00,67.0,-99.9,0.00,ENE,65,17.0,20.0,-999,0.00,,,-99.99,,2013-05-19 03:54:00,
2013-05-18 22:59:00,67.0,-99.9,0.00,ENE,72,18.0,21.0,-999,0.00,,,-99.99,,2013-05-19 03:59:00,
2013-05-18 23:04:00,67.0,-99.9,0.00,ENE,65,13.0,16.0,-999,0.00,,,-99.99,,2013-05-19 04:04:00,
2013-05-18 23:09:00,67.0,-99.9,0.00,ENE,73,14.0,16.0,-999,0.00,,,-99.99,,2013-05-19 04:09:00,
2013-05-18 23:14:00,66.0,-99.9,0.00,ENE,66,12.0,16.0,-999,0.00,,,-99.99,,2013-05-19 04:14:00,
2013-05-18 23:19:00,66.0,-99.9,0.00,East,100,12.0,15.0,-999,0.00,,,-99.99,,2013-05-19 04:19:00,
2013-05-18 23:24:00,68.0,-99.9,0.00,East,89,15.0,18.0,-999,0.00,,,-99.99,,2013-05-19 04:24:00,
2013-05-18 23:29:00,67.0,-99.9,0.00,East,86,17.0,19.0,-999,0.00,,,-99.99,,2013-05-19 04:29:00,
2013-05-18 23:34:00,67.0,-99.9,0.00,ENE,73,15.0,18.0,-999,0.00,,,-99.99,,2013-05-19 04:34:00,
2013-05-18 23:39:00,67.0,-99.9,0.00,ENE,69,14.0,18.0,-999,0.00,,,-99.99,,2013-05-19 04:39:00,
2013-05-18 23:44:00,67.0,-99.9,0.00,ENE,73,14.0,16.0,-999,0.00,,,-99.99,,2013-05-19 04:44:00,
2013-05-18 23:49:00,66.0,-99.9,0.00,ENE,68,12.0,14.0,-999,0.00,,,-99.99,,2013-05-19 04:49:00,
2013-05-18 23:54:00,65.0,-99.9,0.00,NE,48,8.0,9.0,-999,0.00,,,-99.99,,2013-05-19 04:54:00,
2013-05-18 23:59:00,63.0,-99.9,0.00,NNW,333,10.0,12.0,-999,0.00,,,-99.99,,2013-05-19 04:59:00,